Almeria, Spain

7:46 AM CEST on April 26, 2017 (GMT +0200)
Almeria

Weather History for LEAM - November, 2012

Change the Weather History Date:

Monday, November 5, 2012

  Actual Average Record
Temperature  
Mean Temperature 64 °F -  
Max Temperature 67 °F 63 °F 77 °F (2016)
Min Temperature 62 °F 51 °F 46 °F (2008)
Growing Degree Days 14 (Base 50)    
Moisture  
Dew Point 62 °F    
Average Humidity 90    
Maximum Humidity 100    
Minimum Humidity 73    
Precipitation  
Precipitation 0.02 in 0.04 in - ()
Sea Level Pressure  
Sea Level Pressure 29.97 in    
Wind  
Wind Speed 8 mph ()    
Max Wind Speed 23 mph    
Max Gust Speed -    
Visibility 6.3 miles    
Events Rain    
Averages and records for this station are not official NWS values.
T = Trace of Precipitation, MM = Missing Value Source: Averaged Metar Reports

Daily Weather History Graph

Daily Weather History Graph

Search for Another Location

Airport or City:

Trip Planner

Search our weather history database for the weather conditions in past years. The results will help you decide how hot, cold, wet, or windy it might be!

Date:

Astronomy

Nov. 05, 2012 Rise Set
Actual Time 7:37 AM CET 6:08 PM CET
Civil Twilight 7:10 AM CET 6:35 PM CET
Nautical Twilight 6:39 AM CET 7:05 PM CET
Astronomical Twilight 6:09 AM CET 7:36 PM CET
Moon 11:31 PM CET (11/5) 12:48 PM CET (11/5)
Length of Visible Light 11h 24m
Length of Day
10h 30m
Waning Gibbous, 65% of the Moon is Illuminated
Nov 5
Waning Gibbous
Nov 7
Last Quarter
Nov 13
New
Nov 20
First Quarter
Nov 28
Full

Hourly Weather History & Observations

Time (CET) Temp. Dew Point Humidity Pressure Visibility Wind Dir Wind Speed Gust Speed Precip Events Conditions
1:00 AM 66 °F 66 °F 99% 29.85 in - SW 23.0 mph - -   Unknown Precipitation
5:00 AM 66.2 °F 66.2 °F 100% 29.86 in 6.2 mi WSW 12.7 mph - N/A   Mostly Cloudy
5:30 AM 66.2 °F 66.2 °F 100% 29.86 in 6.2 mi WSW 11.5 mph - N/A   Mostly Cloudy
6:00 AM 66.2 °F 66.2 °F 100% 29.89 in 6.2 mi SSW 11.5 mph - N/A   Scattered Clouds
6:30 AM 66.2 °F 66.2 °F 100% 29.89 in 6.2 mi SW 12.7 mph - N/A   Scattered Clouds
7:00 AM 64 °F 64 °F 100% 29.91 in 9 mi SW 11.5 mph - -   Partly Cloudy
7:00 AM 66.2 °F 66.2 °F 100% 29.89 in 6.2 mi SW 11.5 mph - N/A   Scattered Clouds
7:30 AM 66.2 °F 66.2 °F 100% 29.92 in 6.2 mi WSW 12.7 mph - N/A   Scattered Clouds
8:00 AM 66.2 °F 64.4 °F 94% 29.92 in 6.2 mi Variable 2.3 mph - N/A   Scattered Clouds
8:30 AM 66.2 °F 62.6 °F 88% 29.95 in 6.2 mi West 3.5 mph - N/A   Scattered Clouds
9:00 AM 66.2 °F 62.6 °F 88% 29.95 in 6.2 mi SSW 6.9 mph - N/A   Scattered Clouds
9:30 AM 66.2 °F 62.6 °F 88% 29.98 in 6.2 mi SSW 3.5 mph - N/A   Scattered Clouds
10:00 AM 66.2 °F 62.6 °F 88% 29.98 in 6.2 mi SSW 4.6 mph - N/A   Partly Cloudy
10:30 AM 68.0 °F 62.6 °F 83% 29.98 in 6.2 mi SSW 5.8 mph - N/A   Partly Cloudy
11:00 AM 68.0 °F 62.6 °F 83% 30.01 in 6.2 mi South 5.8 mph - N/A   Partly Cloudy
11:30 AM 68.0 °F 62.6 °F 83% 30.01 in 6.2 mi Variable 2.3 mph - N/A   Partly Cloudy
12:30 PM 68.0 °F 62.6 °F 83% 30.01 in 6.2 mi SSW 10.4 mph - N/A   Partly Cloudy
1:00 PM 66 °F 60 °F 75% 30.00 in 12 mi SSW 6.9 mph - -   Mostly Cloudy
1:00 PM 66.2 °F 60.8 °F 83% 29.98 in 6.2 mi SSW 6.9 mph - N/A   Mostly Cloudy
1:30 PM 66.2 °F 62.6 °F 88% 29.98 in 6.2 mi South 4.6 mph - N/A   Mostly Cloudy
2:00 PM 66.2 °F 62.6 °F 88% 29.98 in 6.2 mi SW 8.1 mph - N/A   Mostly Cloudy
2:30 PM 66.2 °F 60.8 °F 83% 29.98 in 6.2 mi WSW 5.8 mph - N/A   Mostly Cloudy
3:00 PM 68.0 °F 60.8 °F 78% 29.98 in 6.2 mi Variable 2.3 mph - N/A   Mostly Cloudy
3:30 PM 68.0 °F 60.8 °F 78% 29.98 in 6.2 mi Variable 1.2 mph - N/A   Scattered Clouds
4:00 PM 66.2 °F 62.6 °F 88% 29.98 in 6.2 mi SSE 3.5 mph - N/A Rain Light Rain
4:30 PM 64.4 °F 64.4 °F 100% 29.98 in 6.2 mi SE 3.5 mph - N/A   Scattered Clouds
5:00 PM 64.4 °F 62.6 °F 94% 29.98 in 6.2 mi ESE 5.8 mph - N/A   Scattered Clouds
5:30 PM 66.2 °F 60.8 °F 83% 29.98 in 6.2 mi ENE 13.8 mph - N/A   Scattered Clouds
6:00 PM 66.2 °F 57.2 °F 73% 30.01 in 6.2 mi ENE 10.4 mph - N/A   Mostly Cloudy
6:07 PM 66.2 °F 59.0 °F 78% 30.01 in 5.0 mi East 6.9 mph - N/A Rain Rain
6:30 PM 64.4 °F 60.8 °F 88% 30.01 in 6.2 mi East 5.8 mph - N/A Rain Light Rain
7:00 PM 63 °F 58 °F 80% 30.02 in 7 mi ENE 10.4 mph - - Rain Light Rain
7:00 PM 64.4 °F 60.8 °F 88% 30.01 in 6.2 mi ENE 10.4 mph - N/A Rain Light Rain
7:30 PM 64.4 °F 60.8 °F 88% 30.04 in 5.0 mi NE 6.9 mph - N/A Rain Rain
8:00 PM 62.6 °F 62.6 °F 100% 30.04 in 5.0 mi NNE 3.5 mph - N/A Rain Rain
8:30 PM 62.6 °F 62.6 °F 100% 30.01 in 6.2 mi North 6.9 mph - N/A Rain Light Rain
9:00 PM 62.6 °F 60.8 °F 94% 30.04 in 6.2 mi NE 8.1 mph - N/A Rain Light Rain
9:30 PM 62.6 °F 60.8 °F 94% 30.04 in 6.2 mi NE 5.8 mph - N/A Rain Light Rain
10:00 PM 62.6 °F 60.8 °F 94% 30.04 in 6.2 mi NE 4.6 mph - N/A Rain Light Rain
10:30 PM 62.6 °F 60.8 °F 94% 30.04 in 6.2 mi Variable 2.3 mph - N/A Rain Rain